Location: Unspecified
(36.5600°N, 136.6600°E)
Time: 03:36:49
(UTC+09:00)

BlueWalker 3 - Pass Details

Date: 26 June 2024
Orbit: 480 x 491 km, 53.2° (Epoch: 23 July)

Event Time Altitude Azimuth Distance (km) Brightness Sun altitude
Rises 00:53:36 0° 320° (NW) 2,537 6.0 -28.6°
Reaches altitude 10° 00:55:53 10° 329° (NNW) 1,655 5.0 -28.4°
Enters shadow 00:57:43 24° 348° (NNW) 1,037 4.0 -28.3°
